Tillbaka till svenska Fidonet
English   Information   Debug  
FILM   0/18
FNEWS_PUBLISH   4926
FN_SYSOP   42201
FN_SYSOP_OLD1   71952
FTP_FIDO   0/2
FTSC_PUBLIC   0/13972
FUNNY   0/4886
GENEALOGY.EUR   0/71
GET_INFO   105
GOLDED   0/408
HAM   2849/16660
HOLYSMOKE   0/6791
HOT_SITES   0/1
HTMLEDIT   0/71
HUB203   466
HUB_100   264
HUB_400   39
HUMOR   0/29
IC   0/2851
INTERNET   0/424
INTERUSER   0/3
IP_CONNECT   719
JAMNNTPD   0/233
JAMTLAND   0/47
KATTY_KORNER   0/41
LAN   0/16
LINUX-USER   0/19
LINUXHELP   0/1155
LINUX   0/22300
LINUX_BBS   0/957
mail   18.68
mail_fore_ok   249
MENSA   0/341
MODERATOR   0/102
MONTE   0/992
MOSCOW_OKLAHOMA   0/1245
MUFFIN   0/783
MUSIC   0/321
N203_STAT   938
N203_SYSCHAT   313
NET203   321
NET204   69
NET_DEV   0/10
NORD.ADMIN   0/101
NORD.CHAT   0/2572
NORD.FIDONET   189
NORD.HARDWARE   0/28
NORD.KULTUR   0/114
NORD.PROG   0/32
NORD.SOFTWARE   0/88
NORD.TEKNIK   0/58
NORD   0/453
OCCULT_CHAT   0/93
OS2BBS   0/787
OS2DOSBBS   0/580
OS2HW   0/42
OS2INET   0/37
OS2LAN   0/134
OS2PROG   0/36
OS2REXX   0/113
OS2USER-L   207
OS2   0/4830
OSDEBATE   0/18996
PASCAL   0/490
PERL   0/457
PHP   0/45
POINTS   0/405
POLITICS   0/29554
POL_INC   0/14731
PSION   103
R20_ADMIN   1133
R20_AMATORRADIO   0/2
R20_BEST_OF_FIDONET   16
R20_CHAT   0/896
R20_DEPP   0/3
R20_DEV   400
R20_ECHO2   1831
R20_ECHOPRES   0/35
R20_ESTAT   0/719
R20_FIDONETPROG...
...RAM.MYPOINT
  0/2
R20_FIDONETPROGRAM   0/22
R20_FIDONET   0/248
R20_FILEFIND   0/24
R20_FILEFOUND   0/22
R20_HIFI   0/3
R20_INFO2   3723
R20_INTERNET   0/12940
R20_INTRESSE   0/60
R20_INTR_KOM   0/99
R20_KANDIDAT.CHAT   42
R20_KANDIDAT   28
R20_KOM_DEV   112
R20_KONTROLL   0/13360
R20_KORSET   0/18
R20_LOKALTRAFIK   0/24
R20_MODERATOR   0/1852
R20_NC   76
R20_NET200   245
R20_NETWORK.OTH...
...ERNETS
  0/13
R20_OPERATIVSYS...
...TEM.LINUX
  0/44
R20_PROGRAMVAROR   0/1
R20_REC2NEC   534
R20_SFOSM   0/341
R20_SF   0/108
R20_SPRAK.ENGLISH   0/1
R20_SQUISH   107
R20_TEST   2
R20_WORST_OF_FIDONET   20
RAR   0/9
RA_MULTI   106
RA_UTIL   0/162
REGCON.EUR   0/2068
REGCON   0/13
SCIENCE   0/1206
SF   0/239
SHAREWARE_SUPPORT   0/5146
SHAREWRE   0/14
SIMPSONS   0/169
STATS_OLD1   0/2539.065
STATS_OLD2   0/2530
STATS_OLD3   0/2395.095
STATS_OLD4   0/1692.25
SURVIVOR   0/495
SYSOPS_CORNER   0/3
SYSOP   0/84
TAGLINES   0/112
TEAMOS2   0/4530
TECH   0/2617
TEST.444   0/105
TRAPDOOR   0/19
TREK   0/755
TUB   0/290
UFO   0/40
UNIX   0/1316
USA_EURLINK   0/102
USR_MODEMS   0/1
VATICAN   0/2740
VIETNAM_VETS   0/14
VIRUS   0/378
VIRUS_INFO   0/201
VISUAL_BASIC   0/473
WHITEHOUSE   0/5187
WIN2000   0/101
WIN32   0/30
WIN95   0/4291
WIN95_OLD1   0/70272
WINDOWS   0/1517
WWB_SYSOP   0/419
WWB_TECH   0/810
ZCC-PUBLIC   0/1
ZEC   4

 
4DOS   0/134
ABORTION   0/7
ALASKA_CHAT   0/506
ALLFIX_FILE   0/1313
ALLFIX_FILE_OLD1   0/7997
ALT_DOS   0/152
AMATEUR_RADIO   0/1039
AMIGASALE   0/14
AMIGA   0/331
AMIGA_INT   0/1
AMIGA_PROG   0/20
AMIGA_SYSOP   0/26
ANIME   0/15
ARGUS   0/924
ASCII_ART   0/340
ASIAN_LINK   0/651
ASTRONOMY   0/417
AUDIO   0/92
AUTOMOBILE_RACING   0/105
BABYLON5   0/17862
BAG   135
BATPOWER   0/361
BBBS.ENGLISH   0/382
BBSLAW   0/109
BBS_ADS   0/5290
BBS_INTERNET   0/507
BIBLE   0/3563
BINKD   0/1119
BINKLEY   0/215
BLUEWAVE   0/2173
CABLE_MODEMS   0/25
CBM   0/46
CDRECORD   0/66
CDROM   0/20
CLASSIC_COMPUTER   0/378
COMICS   0/15
CONSPRCY   0/899
COOKING   41444
COOKING_OLD1   0/24719
COOKING_OLD2   0/40862
COOKING_OLD3   0/37489
COOKING_OLD4   0/35496
COOKING_OLD5   9370
C_ECHO   0/189
C_PLUSPLUS   0/31
DIRTY_DOZEN   0/201
DOORGAMES   0/2285
DOS_INTERNET   0/196
duplikat   6102
ECHOLIST   0/18295
EC_SUPPORT   0/318
ELECTRONICS   0/359
ELEKTRONIK.GER   1534
ENET.LINGUISTIC   0/13
ENET.POLITICS   0/4
ENET.SOFT   0/11701
ENET.SYSOP   34296
ENET.TALKS   0/32
ENGLISH_TUTOR   0/2000
EVOLUTION   0/1335
FDECHO   0/217
FDN_ANNOUNCE   0/7068
FIDONEWS   25062
FIDONEWS_OLD1   0/49742
FIDONEWS_OLD2   0/35949
FIDONEWS_OLD3   0/30874
FIDONEWS_OLD4   0/37224
FIDO_SYSOP   12922
FIDO_UTIL   0/180
FILEFIND   0/209
FILEGATE   0/212
Möte HAM, 16660 texter
 lista första sista föregående nästa
Text 4131, 876 rader
Skriven 2010-11-12 09:01:27 av Amsat List (1:323/120.0)
Ärende: [keps]  orb10316.amsa
=============================
[keps]  orb10316.amsa

Return-Path: <keps-bounces@amsat.org>
X-Rcpt: craig.healy@chowda.com
X-UIDL: 1289568964.8088

SB KEPS @ AMSAT  $ORB10316.O
Orbital Elements  10316.OSCAR

HR AMSAT ORBITAL ELEMENTS FOR OSCAR SATELLITES
FROM WA5QGD FORT WORTH,TX November 12, 2010
BID: ORB10316.O
TO ALL RADIO AMATEURS BT

Satellite: AO-07
Catalog number: 07530
Epoch time:      10315.60472271
Element set:     925
Inclination:      101.3980 deg
RA of node:       325.7321 deg
Eccentricity:    0.0012084
Arg of perigee:   346.4894 deg
Mean anomaly:     013.5856 deg
Mean motion:   12.53580217 rev/day
Decay rate:       -2.7e-07 rev/day^2
Epoch rev:           64692
Checksum:              285

Satellite: FO-29
Catalog number: 24278
Epoch time:      10315.56512026
Element set:     436
Inclination:      098.5189 deg
RA of node:       124.3685 deg
Eccentricity:    0.0351403
Arg of perigee:   101.5073 deg
Mean anomaly:     262.5737 deg
Mean motion:   13.52954549 rev/day
Decay rate:        1.1e-07 rev/day^2
Epoch rev:           70303
Checksum:              291

Satellite: SO-33
Catalog number: 25509
Epoch time:      10314.61630327
Element set:    0834
Inclination:      031.4314 deg
RA of node:       040.4442 deg
Eccentricity:    0.0353506
Arg of perigee:   130.3332 deg
Mean anomaly:     232.8720 deg
Mean motion:   14.28337170 rev/day
Decay rate:       1.83e-06 rev/day^2
Epoch rev:           62900
Checksum:              249

Satellite: RS-22
Catalog number: 27939
Epoch time:      10316.01423986
Element set:     714
Inclination:      097.8675 deg
RA of node:       175.0509 deg
Eccentricity:    0.0012877
Arg of perigee:   316.4871 deg
Mean anomaly:     043.5335 deg
Mean motion:   14.63474823 rev/day
Decay rate:       2.17e-06 rev/day^2
Epoch rev:           38057
Checksum:              322

Satellite: VO-52
Catalog number: 28650
Epoch time:      10315.20708944
Element set:     643
Inclination:      097.6729 deg
RA of node:       002.7589 deg
Eccentricity:    0.0027466
Arg of perigee:   153.3685 deg
Mean anomaly:     206.8921 deg
Mean motion:   14.81845392 rev/day
Decay rate:        5.7e-07 rev/day^2
Epoch rev:           29846
Checksum:              337

Satellite: SO-67
Catalog number: 35870
Epoch time:      10316.00379573
Element set:     279
Inclination:      097.3131 deg
RA of node:       001.0849 deg
Eccentricity:    0.0002070
Arg of perigee:   331.6905 deg
Mean anomaly:     112.5213 deg
Mean motion:   15.21166767 rev/day
Decay rate:       8.40e-06 rev/day^2
Epoch rev:            6392
Checksum:              280

Satellite: HO-68
Catalog number: 36122
Epoch time:      10316.00790131
Element set:     839
Inclination:      100.4499 deg
RA of node:       014.8140 deg
Eccentricity:    0.0007734
Arg of perigee:   003.3631 deg
Mean anomaly:     356.7521 deg
Mean motion:   13.16281271 rev/day
Decay rate:       -4.5e-07 rev/day^2
Epoch rev:            4366
Checksum:              263

/EX
SB KEPS @ AMSAT  $ORB10316.D
Orbital Elements  10316.MICROS

HR AMSAT ORBITAL ELEMENTS FOR THE MICROSATS
FROM WA5QGD FORT WORTH,TX November 12, 2010
BID: ORB10316.D
TO ALL RADIO AMATEURS BT

Satellite: UO-11
Catalog number: 14781
Epoch time:      10314.81741799
Element set:     388
Inclination:      098.0373 deg
RA of node:       006.8497 deg
Eccentricity:    0.0009881
Arg of perigee:   120.8480 deg
Mean anomaly:     239.3673 deg
Mean motion:   14.79855198 rev/day
Decay rate:        5.4e-07 rev/day^2
Epoch rev:           43349
Checksum:              343

Satellite: AO-16
Catalog number: 20439
Epoch time:      10314.79482016
Element set:    0041
Inclination:      098.3535 deg
RA of node:       267.0767 deg
Eccentricity:    0.0011899
Arg of perigee:   090.9450 deg
Mean anomaly:     269.3099 deg
Mean motion:   14.31881880 rev/day
Decay rate:        7.0e-08 rev/day^2
Epoch rev:           08636
Checksum:              321

Satellite: LO-19
Catalog number: 20442
Epoch time:      10314.83896404
Element set:    0952
Inclination:      098.3161 deg
RA of node:       272.3325 deg
Eccentricity:    0.0012914
Arg of perigee:   086.0104 deg
Mean anomaly:     274.2564 deg
Mean motion:   14.32111203 rev/day
Decay rate:        3.2e-07 rev/day^2
Epoch rev:           08654
Checksum:              264

Satellite: AO-27
Catalog number: 22825
Epoch time:      10314.81159532
Element set:    0672
Inclination:      098.5042 deg
RA of node:       259.0871 deg
Eccentricity:    0.0007869
Arg of perigee:   193.1970 deg
Mean anomaly:     166.9021 deg
Mean motion:   14.29315246 rev/day
Decay rate:        9.6e-07 rev/day^2
Epoch rev:           89299
Checksum:              331

Satellite: IO-26
Catalog number: 22826
Epoch time:      10314.85071924
Element set:    0412
Inclination:      098.4985 deg
RA of node:       259.6742 deg
Eccentricity:    0.0008741
Arg of perigee:   187.0652 deg
Mean anomaly:     173.0409 deg
Mean motion:   14.29572849 rev/day
Decay rate:      .00000000 rev/day^2
Epoch rev:           89311
Checksum:              307

Satellite: GO-32
Catalog number: 25397
Epoch time:      10315.10902807
Element set:     329
Inclination:      098.3175 deg
RA of node:       314.4962 deg
Eccentricity:    0.0001440
Arg of perigee:   150.3156 deg
Mean anomaly:     209.8095 deg
Mean motion:   14.23189248 rev/day
Decay rate:        2.6e-07 rev/day^2
Epoch rev:           64094
Checksum:              291

Satellite: NO-44
Catalog number: 26931
Epoch time:      10314.77038555
Element set:    0605
Inclination:      067.0514 deg
RA of node:       186.3043 deg
Eccentricity:    0.0005702
Arg of perigee:   273.7453 deg
Mean anomaly:     086.2972 deg
Mean motion:   14.29619606 rev/day
Decay rate:       -8.7e-07 rev/day^2
Epoch rev:           47570
Checksum:              310

